DW7888 Weather Reports


Display with metric or nautical units.
time (UTC)temp
F
wind
direction
speed
MPH
gust
MPH
rain 1hr
in
rain 24hr
in
rain mn
in
humidity
%
barometer
mb
20260502210021 58 352 0.0 4.0 0.00 0.00 0.00 48 1011.6
20260502205517 58 292 0.0 4.0 0.00 0.00 0.00 48 1011.6
20260502205009 59 333 1.0 4.0 0.00 0.00 0.00 48 1011.5
20260502204504 59 61 0.0 4.0 0.00 0.00 0.00 46 1011.5
20260502204007 59 53 0.0 3.0 0.00 0.00 0.00 49 1011.5
20260502203506 59 360 0.0 3.0 0.00 0.00 0.00 46 1011.6
20260502203004 59 327 1.0 3.0 0.00 0.00 0.00 49 1011.7
20260502202506 59 334 0.0 5.0 0.00 0.00 0.00 46 1011.7
20260502202009 59 325 0.0 5.0 0.00 0.00 0.00 48 1011.7
20260502201503 59 333 1.0 5.0 0.00 0.00 0.00 47 1011.8
20260502201004 59 360 1.0 5.0 0.00 0.00 0.00 48 1011.7
20260502200507 59 10 1.0 4.0 0.00 0.00 0.00 46 1011.9
20260502200010 59 313 1.0 4.0 0.00 0.00 0.00 45 1012.0
20260502195507 59 323 0.0 3.0 0.00 0.00 0.00 48 1011.9
20260502195005 58 348 1.0 5.0 0.00 0.00 0.00 47 1011.8
20260502194512 58 59 0.0 5.0 0.00 0.00 0.00 45 1012.0
20260502194007 59 167 0.0 5.0 0.00 0.00 0.00 48 1012.1
20260502193509 58 157 1.0 4.0 0.00 0.00 0.00 42 1012.0
20260502193006 59 350 0.0 4.0 0.00 0.00 0.00 45 1012.4
20260502192512 59 304 0.0 4.0 0.00 0.00 0.00 44 1012.3
20260502192007 59 39 0.0 4.0 0.00 0.00 0.00 47 1012.4
20260502191507 58 12 1.0 4.0 0.00 0.00 0.00 48 1012.6
20260502191006 58 275 0.0 5.0 0.00 0.00 0.00 46 1012.5
20260502190503 59 327 1.0 6.0 0.00 0.00 0.00 44 1012.6
20260502190010 58 317 1.0 6.0 0.00 0.00 0.00 47 1012.7
20260502185504 58 289 1.0 4.0 0.00 0.00 0.00 48 1012.7
20260502185003 58 115 0.0 4.0 0.00 0.00 0.00 50 1012.8
20260502184511 58 51 0.0 4.0 0.00 0.00 0.00 50 1012.9
20260502184006 58 38 0.0 5.0 0.00 0.00 0.00 49 1012.9
20260502183512 58 294 1.0 5.0 0.00 0.00 0.00 45 1012.9
20260502183008 59 320 0.0 6.0 0.00 0.00 0.00 45 1012.9
20260502182509 58 76 0.0 6.0 0.00 0.00 0.00 50 1013.0
20260502182003 58 340 0.0 8.0 0.00 0.00 0.00 48 1013.1
20260502181510 58 314 1.0 9.0 0.00 0.00 0.00 48 1013.3
20260502181005 58 345 0.0 9.0 0.00 0.00 0.00 51 1013.4
20260502180502 59 339 5.0 9.0 0.00 0.00 0.00 49 1013.5
20260502170507 55 321 1.0 8.0 0.00 0.00 0.00 50 1014.4
20260502164009 55 297 2.0 6.0 0.00 0.00 0.00 52 1014.5
20260502163504 55 46 1.0 5.0 0.00 0.00 0.00 53 1014.5
20260502163035 54 326 1.0 8.0 0.00 0.00 0.00 51 1014.5
20260502162509 54 344 3.0 8.0 0.00 0.00 0.00 51 1014.5
20260502162011 54 12 2.0 7.0 0.00 0.00 0.00 51 1014.6
20260502161525 54 340 2.0 7.0 0.00 0.00 0.00 53 1014.6
20260502161010 54 360 0.0 7.0 0.00 0.00 0.00 51 1014.6
20260502160506 54 47 2.0 5.0 0.00 0.00 0.00 50 1014.7
20260502152008 54 319 2.0 12.0 0.00 0.00 0.00 55 1015.1
20260502151520 53 340 4.0 12.0 0.00 0.00 0.00 56 1015.0
20260502151011 53 24 4.0 10.0 0.00 0.00 0.00 54 1014.7
20260502150504 53 330 3.0 9.0 0.00 0.00 0.00 55 1014.7
20260502130507 52 329 0.0 7.0 0.00 0.00 0.00 68 1014.4
20260502123509 52 260 1.0 8.0 0.00 0.00 0.00 73 1013.9
20260502123038 52 360 1.0 5.0 0.00 0.00 0.00 74 1013.8
20260502122506 52 61 0.0 5.0 0.00 0.00 0.00 74 1014.0
20260502122011 52 19 0.0 8.0 0.00 0.00 0.00 75 1013.7
20260502121527 52 355 0.0 8.0 0.00 0.00 0.00 75 1013.8
20260502121008 52 58 2.0 7.0 0.00 0.00 0.00 74 1013.8
20260502120514 52 311 0.0 5.0 0.00 0.00 0.00 76 1013.7
20260502115504 51 24 1.0 6.0 0.00 0.00 0.00 78 1013.7
20260502115003 51 267 0.0 4.0 0.00 0.00 0.00 79 1013.6
20260502114508 51 317 1.0 3.0 0.00 0.00 0.00 80 1013.8
20260502114008 51 338 0.0 6.0 0.00 0.00 0.00 81 1013.8
20260502113506 50 42 0.0 6.0 0.00 0.00 0.00 82 1013.8
20260502113009 50 324 0.0 3.0 0.00 0.00 0.00 85 1013.7
20260502112507 49 347 0.0 1.0 0.00 0.00 0.00 86 1013.7
20260502112004 49 355 0.0 1.0 0.00 0.00 0.00 87 1013.7
20260502111507 49 32 0.0 3.0 0.00 0.00 0.00 89 1013.7
20260502111007 48 333 0.0 3.0 0.00 0.00 0.00 91 1013.7
20260502110504 48 16 0.0 2.0 0.00 0.00 0.00 92 1013.7
20260502110014 48 33 0.0 0.0 0.00 0.00 0.00 93 1013.8
20260502105509 48 348 0.0 0.0 0.00 0.00 0.00 93 1013.8
20260502105003 48 348 0.0 0.0 0.00 0.00 0.00 93 1013.8
20260502104515 47 348 0.0 0.0 0.00 0.00 0.00 93 1013.8
20260502104008 47 348 0.0 0.0 0.00 0.00 0.00 93 1013.6
20260502103502 47 348 0.0 0.0 0.00 0.00 0.00 93 1013.6
20260502103011 47 348 0.0 0.0 0.00 0.00 0.00 93 1013.6
20260502102511 47 348 0.0 0.0 0.00 0.00 0.00 93 1013.6
20260502102004 47 348 0.0 0.0 0.00 0.00 0.00 93 1013.5
20260502101513 47 348 0.0 0.0 0.00 0.00 0.00 93 1013.4
20260502101007 47 348 0.0 0.0 0.00 0.00 0.00 93 1013.4
20260502100504 47 348 0.0 0.0 0.00 0.00 0.00 93 1013.3
20260502091516 47 348 0.0 0.0 0.00 0.00 0.00 91 1013.1
20260502091009 47 348 0.0 0.0 0.00 0.00 0.00 91 1013.1
20260502090503 47 348 0.0 0.0 0.00 0.00 0.00 91 1013.1
20260502071522 49 348 0.0 0.0 0.00 0.00 0.00 86 1012.4
20260502071006 49 348 0.0 0.0 0.00 0.00 0.00 86 1012.5
20260502070512 50 348 0.0 0.0 0.00 0.00 0.00 85 1012.4
20260502070024 50 348 0.0 0.0 0.00 0.00 0.00 84 1012.3
20260502065507 50 348 0.0 0.0 0.00 0.00 0.00 84 1012.4
20260502065006 50 348 0.0 0.0 0.00 0.00 0.00 84 1012.4
20260502064528 50 348 0.0 0.0 0.00 0.00 0.00 84 1012.4
20260502064006 51 348 0.0 0.0 0.00 0.00 0.00 84 1012.4
20260502063507 51 348 0.0 0.0 0.00 0.00 0.00 83 1012.4
20260502063023 51 348 0.0 0.0 0.00 0.00 0.00 83 1012.4
20260502062506 51 348 0.0 0.0 0.00 0.00 0.00 82 1012.4
20260502062012 51 348 0.0 0.0 0.00 0.00 0.00 81 1012.5
20260502061526 52 348 0.0 0.0 0.00 0.00 0.00 81 1012.5
20260502061007 52 348 0.0 0.0 0.00 0.00 0.00 81 1012.6
20260502060511 52 348 0.0 0.0 0.00 0.00 0.00 80 1012.7
20260502060025 53 348 0.0 0.0 0.00 0.00 0.00 79 1012.7
20260502055506 53 348 0.0 3.0 0.00 0.00 0.00 79 1012.8
20260502055009 53 348 0.0 3.0 0.00 0.00 0.00 79 1012.9
20260502054533 53 325 0.0 3.0 0.00 0.00 0.00 78 1012.9
20260502054005 53 332 1.0 2.0 0.00 0.00 0.00 78 1012.8
20260502053506 53 41 0.0 2.0 0.00 0.00 0.00 78 1012.7
20260502053026 53 51 0.0 2.0 0.00 0.00 0.00 77 1012.7
20260502052507 54 97 0.0 2.0 0.00 0.00 0.00 77 1012.6
20260502052008 54 135 0.0 3.0 0.00 0.00 0.00 76 1012.6
20260502051531 54 135 0.0 3.0 0.00 0.00 0.00 76 1012.7
20260502051009 54 120 0.0 3.0 0.00 0.00 0.00 76 1012.8
20260502050509 54 252 0.0 3.0 0.00 0.00 0.00 75 1012.8
20260502050030 54 135 0.0 2.0 0.00 0.00 0.00 75 1012.7
20260502045508 55 148 1.0 4.0 0.00 0.00 0.00 75 1012.7
20260502045008 55 148 0.0 4.0 0.00 0.00 0.00 75 1012.8
20260502044528 55 138 1.0 7.0 0.00 0.00 0.00 75 1012.8
20260502044006 55 336 1.0 7.0 0.00 0.00 0.00 75 1012.8
20260502043510 55 117 1.0 6.0 0.00 0.00 0.00 75 1012.9
20260502043032 55 86 1.0 5.0 0.00 0.00 0.00 75 1013.0
20260502042506 55 188 0.0 8.0 0.00 0.00 0.00 75 1013.0
20260502042011 55 197 1.0 8.0 0.00 0.00 0.00 74 1013.1
20260502041527 55 169 2.0 8.0 0.00 0.00 0.00 74 1013.1
20260502041006 55 167 0.0 3.0 0.00 0.00 0.00 74 1013.1
20260502040507 55 150 0.0 4.0 0.00 0.00 0.00 74 1013.1
20260502040029 55 111 0.0 4.0 0.00 0.00 0.00 73 1013.1
20260502035508 55 101 0.0 4.0 0.00 0.00 0.00 73 1013.0
20260502035009 56 193 0.0 4.0 0.00 0.00 0.00 73 1012.9
20260502034528 56 15 0.0 3.0 0.00 0.00 0.00 72 1012.8
20260502034008 56 140 0.0 5.0 0.00 0.00 0.00 72 1012.9
20260502033510 56 197 0.0 5.0 0.00 0.00 0.00 71 1012.8
20260502033029 56 118 1.0 5.0 0.00 0.00 0.00 71 1012.9
20260502032507 56 175 0.0 6.0 0.00 0.00 0.00 70 1012.8
20260502032008 57 190 0.0 6.0 0.00 0.00 0.00 70 1012.8
20260502031528 57 205 0.0 4.0 0.00 0.00 0.00 69 1012.7
20260502031009 57 217 1.0 4.0 0.00 0.00 0.00 69 1012.5
20260502030511 57 126 1.0 3.0 0.00 0.00 0.00 68 1012.5
20260502030028 57 109 0.0 6.0 0.00 0.00 0.00 68 1012.4
20260502025517 57 215 1.0 6.0 0.00 0.00 0.00 67 1012.2
20260502025003 58 166 1.0 5.0 0.00 0.00 0.00 67 1012.1
20260502024523 58 127 1.0 5.0 0.00 0.00 0.00 66 1012.1
20260502024003 58 168 0.0 5.0 0.00 0.00 0.00 66 1012.2
20260502023503 58 105 2.0 9.0 0.00 0.00 0.00 65 1012.3
20260502023005 58 194 1.0 9.0 0.00 0.00 0.00 65 1012.3
20260502022505 59 128 2.0 7.0 0.00 0.00 0.00 64 1012.4
20260502022003 59 98 1.0 7.0 0.00 0.00 0.00 64 1012.5
20260502021503 59 120 2.0 7.0 0.00 0.00 0.00 63 1012.5
20260502021004 59 184 1.0 6.0 0.00 0.00 0.00 63 1012.4
20260502020504 59 137 2.0 8.0 0.00 0.00 0.00 62 1012.4
20260502020003 60 165 2.0 11.0 0.00 0.00 0.00 62 1012.4
20260502015505 60 170 3.0 11.0 0.00 0.00 0.00 61 1012.3
20260502015006 59 182 1.0 6.0 0.00 0.00 0.00 60 1012.3
20260502014504 60 189 2.0 8.0 0.00 0.00 0.00 60 1012.4
20260502014003 59 147 1.0 8.0 0.00 0.00 0.00 59 1012.3
20260502013503 59 148 1.0 5.0 0.00 0.00 0.00 59 1012.2
20260502013008 59 150 1.0 3.0 0.00 0.00 0.00 59 1012.1
20260502012505 60 146 0.0 3.0 0.00 0.00 0.00 58 1012.1
20260502012012 60 165 2.0 3.0 0.00 0.00 0.00 57 1012.1
20260502011504 60 173 0.0 5.0 0.00 0.00 0.00 57 1012.0
20260502011004 60 183 0.0 5.0 0.00 0.00 0.00 57 1012.0
20260502010506 60 166 0.0 3.0 0.00 0.00 0.00 56 1012.0
20260502010025 60 116 0.0 3.0 0.00 0.00 0.00 56 1011.9
20260502005503 60 141 0.0 3.0 0.00 0.00 0.00 55 1011.9
20260502005012 60 167 0.0 4.0 0.00 0.00 0.00 55 1011.7
20260502004510 60 155 1.0 4.0 0.00 0.00 0.00 54 1011.6
20260502004010 60 197 0.0 2.0 0.00 0.00 0.00 53 1011.5
20260502003505 61 126 0.0 3.0 0.00 0.00 0.00 52 1011.4
20260502003003 61 146 0.0 3.0 0.00 0.00 0.00 52 1011.4
20260502002502 61 145 0.0 4.0 0.00 0.00 0.00 51 1011.4
20260502002011 61 295 0.0 4.0 0.00 0.00 0.00 51 1011.3
20260502001504 62 143 0.0 3.0 0.00 0.00 0.00 49 1011.4
20260502001004 62 120 0.0 3.0 0.00 0.00 0.00 50 1011.4
20260502000509 62 141 0.0 3.0 0.00 0.00 0.00 49 1011.4
20260502000005 63 191 1.0 6.0 0.00 0.00 0.00 48 1011.5
20260501235504 63 148 0.0 6.0 0.00 0.00 0.00 48 1011.5
20260501235012 63 119 1.0 6.0 0.00 0.00 0.00 47 1011.3
20260501234503 64 196 1.0 3.0 0.00 0.00 0.00 47 1011.3
20260501234003 64 184 1.0 4.0 0.00 0.00 0.00 47 1011.3
20260501233512 64 110 1.0 6.0 0.00 0.00 0.00 46 1011.2
20260501233004 64 127 1.0 6.0 0.00 0.00 0.00 46 1011.3
20260501232506 65 173 2.0 6.0 0.00 0.00 0.00 45 1011.2
20260501232009 65 176 2.0 6.0 0.00 0.00 0.00 45 1011.2
20260501231506 65 190 1.0 7.0 0.00 0.00 0.00 46 1011.2
20260501231007 65 185 1.0 7.0 0.00 0.00 0.00 46 1011.2
20260501230510 65 117 2.0 7.0 0.00 0.00 0.00 44 1011.1
20260501230004 65 136 1.0 9.0 0.00 0.00 0.00 43 1011.2
20260501225508 66 194 2.0 9.0 0.00 0.00 0.00 43 1011.2
20260501225010 66 165 1.0 8.0 0.00 0.00 0.00 43 1011.2
20260501224505 66 156 2.0 7.0 0.00 0.00 0.00 41 1011.2
20260501224005 66 205 1.0 4.0 0.00 0.00 0.00 42 1011.3
20260501223507 66 355 0.0 2.0 0.00 0.00 0.00 42 1011.4
20260501223005 66 149 0.0 4.0 0.00 0.00 0.00 42 1011.5
20260501222507 66 202 1.0 5.0 0.00 0.00 0.00 41 1011.4
20260501222011 66 76 1.0 6.0 0.00 0.00 0.00 42 1011.5
20260501221511 66 118 2.0 8.0 0.00 0.00 0.00 42 1011.6
20260501221007 66 151 2.0 8.0 0.00 0.00 0.00 41 1011.6
20260501220511 67 102 2.0 8.0 0.00 0.00 0.00 42 1011.6
20260501220012 67 205 1.0 5.0 0.00 0.00 0.00 41 1011.6
20260501215506 67 186 1.0 10.0 0.00 0.00 0.00 41 1011.6
20260501215010 67 195 3.0 10.0 0.00 0.00 0.00 39 1011.5
20260501214510 67 122 2.0 8.0 0.00 0.00 0.00 40 1011.6
20260501214009 67 321 0.0 8.0 0.00 0.00 0.00 41 1011.6
20260501213511 67 113 2.0 7.0 0.00 0.00 0.00 40 1011.5
20260501213011 67 180 3.0 7.0 0.00 0.00 0.00 38 1011.5
20260501212507 67 138 1.0 7.0 0.00 0.00 0.00 37 1011.5
20260501212010 67 260 1.0 7.0 0.00 0.00 0.00 39 1011.5
20260501211511 67 136 2.0 9.0 0.00 0.00 0.00 38 1011.6
20260501211008 68 232 2.0 9.0 0.00 0.00 0.00 37 1011.6
20260501210508 68 80 2.0 7.0 0.00 0.00 0.00 38 1011.6